Flag for Czech Republic Weather past 2 weeks in Brno, Czech Republic

Now
65 °F

Partly sunny.


Feels Like: 65 °F
Forecast: 48 / 60 °F
Wind: 2 mph from South

Location: Brno / Turany

Current Time: Sep 21, 2014 at 10:45:09 AM

Latest Report: Sep 21, 2014 at 10:00 AM


Visibility: 9 mi

Pressure: 29.91 "Hg

Humidity: 78%

Dew point: 58 °F

Location of BrnoLocation

Historic Weather in Brno — Graph

°F

Brno temperature yesterday

Maximum temperature yesterday: 72 °F (at 3:00 PM)
Minimum temperature yesterday: 57 °F (at 7:00 AM)
Average temperature yesterday: 63 °F

Past Weeks' High & Low Weather Summary

 TemperatureHumidityPressure
High77 °F (Sep 8, 4:00 PM)98% (Sep 15, 3:00 AM)30.11 "Hg (Sep 15, 3:00 AM)
Low52 °F (Sep 17, 6:00 AM)46% (Sep 8, 5:00 PM)29.76 "Hg (Sep 12, 7:00 AM)
Average62 °F81%30.00 "Hg
* Reported Sep 6 9:00 AM — Sep 21 9:00 AM, Brno, Weather by CustomWeather, © 2014

Note: Actual official high and low records may vary slightly from our data, if they occured in-between our weather recording intervals... More about our weather records

Advertising

Brno weather history for previous 24 hours

 ConditionsComfort  
Time TempWeatherWind HumidityBarometerVisibility
9:00 AM
Sep 21
63 °FPassing clouds.2 mph84%29.92 "Hg9 mi
8:00 AM60 °FFog.3 mph93%29.92 "Hg6 mi
7:00 AM57 °FFog.2 mph95%29.93 "Hg7 mi
6:00 AM57 °FPassing clouds.2 mph95%29.92 "Hg11 mi
5:00 AM60 °FPassing clouds.2 mph91%29.91 "Hg12 mi
4:00 AM61 °FOvercast.3 mph89%29.91 "Hg19 mi
3:00 AM61 °FOvercast.3 mph90%29.92 "Hg19 mi
2:00 AM62 °FOvercast.2 mph91%29.93 "Hg19 mi
1:00 AM60 °FOvercast.2 mph94%29.93 "Hg19 mi
12:00 AM61 °FOvercast.2 mph92%29.93 "Hg19 mi
11:00 PM
Sep 20
63 °FThunderstorms. Low clouds.2 mph89%29.94 "Hg19 mi
10:00 PM63 °FThundershowers. Overcast.3 mph90%29.93 "Hg12 mi
9:00 PM63 °FOvercast.1 mph89%29.93 "Hg19 mi
8:00 PM65 °FOvercast.1 mph84%29.93 "Hg16 mi
7:00 PM67 °FThunderstorms. Low clouds.1 mph83%29.92 "Hg9 mi
3:00 PM72 °FPartly sunny.1 mph65%29.92 "Hg11 mi
2:00 PM72 °FPartly sunny.2 mph65%29.94 "Hg11 mi
1:00 PM71 °FPassing clouds.2 mph67%29.96 "Hg6 mi
12:00 PM68 °FPartly sunny.1 mph71%29.97 "Hg6 mi
11:00 AM65 °FFog.2 mph77%29.99 "Hg5 mi
10:00 AM63 °FFog.1 mph83%29.98 "Hg4 mi
Weather by CustomWeather, © 2014

See weather overviewHow to use our weather pages